Terminal Aerodrome Forecast
Issued by NWS

Home | Current Version | Previous Version | Text Only | Print | Product List | Glossary On
Versions: 1 2 3 4 5 6 7 8 9 10 11 12 13
010
FTUS42 TJSJ 132331
TAFJBQ
TAF
TJBQ 132331Z 1400/1424 09005KT P6SM OVC080
     FM141300 07011KT P6SM SCT030 SCT040
     FM142000 09010KT P6SM VCSH SCT030 BKN050
      AMD NOT SKED 1402/1411=

USA.gov is the U.S. government's official web portal to all federal, state and local government web resources and services.